Temp
22 23 22 21 21 22 21 21 21 20 20 20 20 19 19 19 19 19 18 18 18 17 17 17 17 17 16 16 16 16 16 16 16 16 16 15 15 16 15 16 15 15 15
23 23 22 22 21 22 21 21 20 20 20 19 19 19 19 19 19 19 19 18 18 17 17 17 17 16 16 16 16 16 16 16 16 15 15 15 15 15 15 15 15 15 15
24 23 22 22 22 22 21 20 20 20 19 19 19 19 18 18 18 19 19 18 18 17 17 17 16 16 16 16 15 15 15 15 15 15 15 15 15 15 15 15 15 15 14
24 23 23 22 22 21 21 20 20 19 19 19 19 18 18 18 18 18 18 18 17 17 17 17 16 16 16 16 16 15 15 15 15 15 15 15 15 15 15 15 15 14 14
23 23 23 22 22 21 21 20 20 19 19 19 18 18 18 18 18 18 18 18 17 17 17 17 16 16 16 16 15 15 15 15 15 14 15 15 15 14 14 14 14 14 14
23 23 23 22 22 21 21 20 20 19 19 19 18 18 18 17 17 17 17 17 17 17 16 16 16 16 15 15 15 15 14 14 14 14 14 15 15 14 14 14 14 13 13
23 23 22 22 22 21 21 20 20 19 19 19 18 18 17 17 17 17 17 17 16 16 16 16 16 16 15 15 15 14 14 14 14 14 14 13 14 14 14 13 13 12 12
24 23 22 22 22 22 21 20 20 19 19 19 18 18 17 17 17 16 16 16 16 16 16 15 16 16 15 15 14 14 14 14 14 13 13 13 13 13 13 13 13 13 11
23 23 22 22 21 21 21 21 20 20 19 19 18 18 17 17 17 16 16 16 16 15 16 15 15 16 15 15 14 14 14 14 14 13 13 13 13 13 13 13 12 12 12
23 23 23 22 22 21 21 21 20 20 19 19 18 18 17 17 17 16 16 16 16 15 15 15 15 15 15 15 14 14 14 13 14 13 13 13 13 13 13 13 12 12 11
22 23 22 22 22 21 21 21 20 20 20 19 18 17 17 17 17 16 16 16 16 15 15 15 15 15 15 14 14 14 14 13 13 14 13 13 13 13 13 12 12 11 9
22 22 22 22 22 21 21 20 20 20 20 19 18 17 17 17 16 16 15 15 15 15 14 14 14 15 14 14 14 14 13 13 14 14 13 12 12 13 12 12 12 10 9
23 22 22 21 21 21 21 20 20 20 20 20 19 18 17 16 16 15 15 15 14 14 14 14 14 14 14 14 13 13 13 13 13 13 13 12 13 12 12 12 11 10 9
22 22 22 21 21 21 20 20 20 20 20 20 19 18 17 16 15 15 15 15 14 14 14 14 14 14 14 14 13 13 13 13 14 13 13 13 12 12 12 12 11 11 10
22 22 22 22 22 21 21 20 20 20 20 20 19 18 17 16 16 15 15 14 14 14 14 14 14 13 14 13 13 13 13 13 13 12 12 12 12 12 12 12 12 12 10
22 22 22 22 21 22 22 21 20 20 20 19 19 19 18 16 16 15 14 14 14 14 14 14 13 13 13 13 13 13 12 12 12 12 11 11 12 12 12 11 12 13 10
22 22 22 21 22 22 22 21 20 20 19 19 19 18 17 16 16 15 15 14 14 13 13 13 13 13 12 12 12 12 12 12 12 11 11 11 11 11 11 11 11 12 11
23 21 21 21 21 22 22 21 21 20 19 18 18 18 18 17 16 15 14 14 14 13 13 13 13 13 12 12 12 12 11 11 11 10 11 11 11 11 11 11 11 11 9
23 22 21 21 21 21 21 21 20 20 19 19 18 17 17 17 16 15 15 14 13 13 13 13 13 13 12 12 11 11 11 11 10 10 10 10 11 11 12 10 10 10 9
23 23 22 21 21 21 20 20 19 18 17 17 17 17 16 16 16 16 14 14 13 12 12 12 12 12 12 12 11 11 11 11 10 10 10 10 11 11 11 10 10 9 9
23 22 22 22 21 20 19 19 18 18 18 17 16 16 16 16 16 16 14 14 13 12 12 12 12 12 11 11 10 10 10 10 10 10 11 10 10 11 10 10 10 10 9
22 23 22 22 22 21 20 19 18 18 18 17 16 16 16 15 15 16 15 14 13 12 12 12 11 11 11 11 10 10 10 10 10 10 10 10 11 10 10 10 10 9 9
19 20 20 21 22 22 20 19 19 19 18 17 15 15 16 15 15 15 15 14 14 13 12 12 11 11 11 10 10 10 10 10 10 10 10 10 10 10 10 10 10 9 9
17 17 19 17 17 19 20 19 19 19 19 19 19 16 16 15 15 15 14 13 13 12 11 11 11 11 10 10 9 10 10 10 9 9 9 9 10 10 10 10 9 9 9
16 16 16 15 15 15 17 18 19 18 19 19 19 18 16 15 15 14 14 13 13 12 12 11 11 11 11 11 10 9 9 9 10 10 9 10 9 10 10 10 10 10 10
15 15 16 16 15 15 16 17 18 19 18 17 17 17 16 14 14 14 13 13 12 12 11 11 11 11 11 10 9 9 10 9 10 10 9 9 9 9 9 10 10 10 10
Height
1488 1491 1494 1497 1499 1500 1502 1504 1506 1508 1510 1512 1513 1515 1516 1517 1518 1520 1522 1524 1525 1526 1528 1530 1531 1533 1533 1534 1536 1538 1539 1540 1541 1541 1542 1543 1544 1545 1546 1546 1548 1548 1550
1486 1490 1493 1497 1499 1500 1501 1504 1506 1508 1510 1512 1514 1515 1516 1518 1519 1520 1522 1524 1525 1527 1528 1530 1532 1533 1534 1536 1537 1539 1540 1541 1541 1543 1543 1545 1545 1546 1547 1548 1550 1550 1551
1486 1489 1492 1496 1498 1500 1501 1503 1505 1508 1510 1512 1514 1515 1517 1518 1520 1521 1522 1524 1526 1528 1529 1531 1533 1534 1536 1537 1538 1540 1541 1541 1541 1542 1543 1545 1546 1548 1548 1550 1550 1552 1553
1486 1488 1490 1494 1497 1499 1500 1503 1505 1508 1510 1512 1513 1515 1517 1518 1520 1522 1523 1525 1526 1528 1529 1531 1533 1535 1536 1538 1539 1540 1542 1542 1543 1544 1545 1546 1547 1549 1550 1551 1552 1554 1555
1485 1487 1490 1492 1496 1498 1500 1502 1505 1508 1510 1511 1513 1515 1517 1519 1521 1522 1524 1525 1527 1528 1530 1531 1533 1535 1537 1538 1539 1540 1541 1544 1545 1546 1546 1547 1548 1549 1551 1552 1554 1556 1557
1484 1486 1489 1490 1494 1497 1499 1501 1504 1507 1509 1510 1513 1514 1517 1518 1520 1523 1525 1526 1527 1528 1530 1532 1533 1535 1537 1539 1541 1541 1543 1544 1546 1547 1547 1548 1549 1550 1551 1554 1556 1558 1559
1481 1485 1487 1490 1493 1495 1498 1500 1503 1506 1508 1510 1512 1513 1516 1518 1520 1522 1524 1526 1528 1529 1530 1532 1533 1535 1537 1539 1541 1541 1542 1544 1547 1548 1548 1550 1551 1551 1552 1555 1557 1558 1559
1479 1482 1486 1490 1491 1494 1495 1499 1501 1504 1507 1509 1511 1513 1514 1516 1519 1522 1524 1526 1527 1529 1531 1533 1534 1535 1537 1539 1541 1540 1541 1544 1546 1548 1550 1550 1551 1548 1553 1556 1557 1559 1559
1477 1481 1484 1488 1491 1493 1494 1497 1500 1502 1505 1508 1510 1511 1513 1515 1518 1520 1523 1525 1527 1529 1531 1533 1534 1536 1537 1539 1540 1541 1543 1544 1546 1547 1551 1551 1550 1548 1555 1556 1557 1559 1559
1477 1480 1483 1486 1489 1492 1493 1495 1498 1500 1502 1506 1508 1510 1512 1514 1516 1519 1521 1523 1526 1528 1530 1532 1534 1536 1538 1539 1541 1542 1543 1545 1546 1547 1549 1550 1551 1552 1554 1555 1556 1558 1558
1476 1479 1481 1484 1487 1490 1492 1494 1496 1498 1500 1503 1506 1509 1511 1512 1514 1517 1519 1522 1524 1526 1529 1531 1533 1535 1537 1539 1540 1542 1542 1544 1545 1545 1548 1549 1551 1552 1553 1554 1555 1556 1556
1473 1476 1478 1482 1484 1487 1490 1492 1493 1496 1497 1499 1503 1506 1508 1511 1513 1515 1517 1519 1522 1525 1527 1530 1532 1533 1535 1537 1539 1539 1540 1542 1544 1545 1547 1549 1551 1552 1552 1553 1553 1554 1555
1469 1473 1476 1479 1481 1484 1487 1489 1491 1492 1495 1496 1499 1502 1505 1508 1510 1512 1514 1516 1519 1521 1524 1527 1529 1530 1532 1534 1536 1537 1538 1540 1540 1544 1546 1548 1550 1550 1551 1552 1553 1553 1555
1465 1469 1473 1476 1478 1480 1484 1486 1488 1490 1491 1493 1495 1499 1501 1503 1506 1508 1510 1512 1515 1518 1520 1523 1527 1528 1530 1532 1534 1536 1536 1538 1540 1541 1543 1545 1547 1549 1550 1551 1552 1552 1554
1461 1464 1466 1469 1473 1475 1479 1482 1484 1486 1488 1490 1492 1494 1497 1500 1502 1504 1507 1509 1511 1514 1516 1520 1523 1526 1527 1529 1531 1533 1534 1535 1537 1539 1540 1542 1545 1547 1548 1549 1550 1551 1553
1456 1460 1463 1465 1468 1471 1473 1477 1480 1482 1485 1486 1488 1490 1493 1496 1498 1500 1503 1505 1508 1510 1513 1516 1519 1522 1524 1526 1527 1529 1531 1532 1533 1534 1537 1538 1540 1545 1545 1547 1548 1550 1552
1450 1454 1457 1461 1464 1466 1468 1471 1475 1478 1481 1483 1484 1487 1489 1492 1493 1496 1498 1501 1504 1507 1510 1512 1515 1518 1520 1521 1524 1526 1528 1529 1529 1528 1532 1534 1537 1542 1544 1545 1546 1548 1550
1446 1449 1452 1456 1459 1461 1464 1467 1469 1472 1475 1478 1481 1483 1485 1488 1490 1492 1494 1497 1500 1503 1506 1508 1510 1513 1515 1517 1519 1522 1524 1525 1524 1525 1528 1531 1535 1540 1541 1543 1545 1546 1549
1441 1443 1446 1449 1453 1456 1458 1462 1464 1466 1469 1472 1476 1478 1481 1484 1486 1488 1489 1493 1496 1498 1501 1504 1505 1508 1511 1513 1515 1518 1520 1521 1521 1523 1524 1527 1532 1536 1538 1541 1543 1545 1548
1436 1436 1437 1443 1446 1450 1453 1455 1458 1462 1465 1468 1470 1474 1477 1480 1482 1483 1485 1489 1491 1494 1496 1500 1502 1503 1506 1509 1511 1513 1515 1515 1516 1518 1520 1525 1530 1534 1536 1538 1541 1544 1547
1428 1429 1430 1433 1438 1442 1445 1450 1453 1456 1459 1462 1465 1470 1472 1475 1478 1478 1481 1484 1486 1488 1492 1495 1498 1500 1502 1505 1508 1509 1510 1511 1512 1514 1516 1521 1526 1530 1533 1535 1538 1541 1545
1420 1420 1423 1426 1430 1433 1437 1442 1448 1451 1454 1457 1461 1465 1468 1471 1474 1475 1476 1479 1481 1484 1487 1491 1493 1494 1497 1500 1502 1504 1506 1508 1509 1512 1513 1517 1523 1527 1530 1533 1536 1539 1542
1411 1414 1416 1420 1422 1425 1430 1435 1442 1448 1452 1455 1458 1460 1461 1465 1469 1471 1472 1475 1477 1480 1482 1485 1487 1489 1491 1494 1497 1498 1500 1500 1503 1507 1509 1514 1520 1523 1527 1530 1533 1537 1540
1409 1412 1411 1416 1420 1422 1422 1427 1431 1435 1441 1447 1448 1451 1454 1459 1464 1466 1468 1471 1473 1475 1478 1481 1483 1484 1486 1488 1491 1492 1493 1495 1496 1500 1506 1511 1516 1520 1523 1527 1531 1534 1537
1408 1410 1411 1413 1415 1422 1425 1425 1423 1429 1436 1440 1443 1446 1449 1453 1458 1461 1463 1466 1469 1470 1473 1475 1478 1479 1481 1482 1484 1486 1488 1489 1489 1488 1499 1505 1512 1516 1521 1524 1527 1530 1533
1406 1408 1409 1412 1413 1415 1419 1425 1424 1426 1431 1433 1439 1440 1441 1446 1451 1454 1458 1461 1464 1467 1469 1471 1473 1474 1476 1477 1480 1481 1481 1479 1481 1486 1492 1499 1505 1511 1516 1521 1524 1527 1529
Wind_Speed
18 18 20 20 18 15 16 18 19 19 18 17 16 15 14 12 10 11 11 10 11 11 11 10 11 10 9 8 8 7 6 7 8 9 10 13 16 16 18 18 19 20 19
22 20 20 18 16 16 16 18 18 18 17 16 16 15 14 13 11 11 11 11 11 11 11 11 12 10 9 8 6 6 5 6 8 10 13 15 16 17 18 18 19 19 19
19 22 21 18 16 16 17 18 18 18 17 16 15 15 15 13 11 11 11 11 11 11 10 10 10 9 8 5 4 4 5 6 9 11 14 17 17 17 18 18 18 19 18
20 22 21 19 17 16 16 17 17 17 17 15 15 15 14 14 12 11 12 12 11 10 11 10 9 7 7 6 5 6 6 8 10 11 14 16 18 17 19 18 18 18 18
23 23 20 18 16 15 16 16 16 16 15 15 15 15 14 14 13 11 12 12 11 10 9 9 9 9 8 8 8 9 9 9 10 14 16 17 18 19 19 18 18 18 17
23 20 18 17 16 15 15 16 16 15 15 15 15 15 14 14 13 12 11 12 11 10 9 9 10 10 10 9 9 9 9 10 12 15 16 17 17 21 20 19 18 17 15
23 20 19 18 16 16 15 15 15 15 15 15 14 15 15 15 14 13 12 12 11 9 9 11 11 11 10 9 9 11 12 12 12 13 15 16 17 20 20 18 17 14 13
22 22 20 19 17 15 15 14 15 15 14 14 14 15 15 15 14 13 13 14 12 11 11 11 12 11 10 10 11 13 14 12 10 13 14 17 17 17 16 15 13 10 14
21 21 20 19 17 16 15 15 15 15 14 13 14 14 15 15 15 15 14 15 13 12 12 11 12 10 10 10 13 13 14 11 10 12 14 15 14 9 12 13 11 10 10
21 20 20 19 18 17 16 16 16 15 14 14 14 15 15 16 17 17 17 17 16 14 14 12 13 11 9 10 11 10 11 13 11 11 13 13 15 13 13 13 11 11 11
23 22 23 21 20 18 17 17 17 16 15 16 16 16 16 17 18 18 19 18 18 16 17 14 14 12 7 10 14 10 13 18 15 10 14 14 15 14 12 14 12 11 13
27 26 25 25 23 22 21 19 18 17 16 16 17 17 18 17 18 18 19 20 19 19 18 15 15 15 12 11 18 11 16 16 16 10 13 15 16 15 13 12 10 12 16
27 27 27 26 26 25 24 22 20 18 17 17 17 18 18 19 19 20 21 23 22 23 21 20 19 18 15 14 19 14 16 18 17 14 16 14 16 15 13 9 11 14 15
26 26 28 28 28 28 26 25 22 21 19 18 18 19 20 21 21 22 23 23 25 25 25 23 22 20 17 16 18 19 18 20 15 18 21 19 18 17 14 12 14 15 16
29 28 27 30 31 29 28 27 26 24 22 19 18 19 20 22 22 22 23 24 25 25 27 25 25 23 21 18 20 20 19 24 22 22 23 22 19 20 15 15 14 14 16
30 32 31 28 28 29 30 28 28 26 23 21 20 19 19 21 21 22 23 24 25 25 26 25 26 25 24 21 22 21 21 22 22 26 26 27 23 22 16 17 16 16 16
35 32 36 34 30 28 28 29 28 27 26 24 21 19 19 21 21 23 23 24 24 24 24 23 24 24 24 23 23 23 22 25 28 28 30 27 24 23 17 17 19 19 19
21 38 40 38 36 33 30 28 28 28 29 25 23 20 19 19 22 24 24 25 24 24 25 24 23 23 23 24 23 25 25 24 25 25 28 28 27 25 18 18 18 19 21
30 26 36 40 41 40 37 33 31 31 30 27 24 23 21 21 21 24 25 25 25 25 26 25 24 24 25 25 24 24 24 25 25 28 27 31 29 24 21 21 19 20 22
32 37 29 34 39 43 44 40 36 32 29 28 27 26 25 25 23 23 24 25 26 26 27 27 26 26 26 25 24 24 24 26 26 33 31 32 30 25 22 23 21 22 23
37 35 36 31 34 46 51 45 42 36 34 33 33 28 27 26 25 24 25 26 28 29 27 27 27 26 28 25 23 23 21 23 27 33 29 31 30 25 26 24 24 24 23
44 44 41 33 32 41 54 52 46 41 37 34 32 29 28 26 26 26 25 25 28 29 27 26 28 28 27 27 27 20 17 24 31 31 28 32 30 27 27 25 24 25 23
11 19 25 33 34 37 47 54 46 40 35 33 33 32 31 27 25 26 26 26 26 27 28 28 29 29 29 29 29 18 10 12 27 34 31 35 32 27 26 25 24 24 25
10 8 8 22 33 39 46 56 52 46 41 39 37 35 33 29 27 27 26 27 26 27 28 29 31 31 30 30 28 33 30 19 21 17 33 34 32 26 24 20 23 22 25
10 8 11 9 24 32 42 53 52 47 40 37 34 35 35 33 30 29 27 28 28 27 29 28 32 32 31 30 30 31 37 28 29 31 28 37 33 27 22 18 17 21 23
12 8 3 4 5 25 32 38 43 42 40 42 38 38 37 36 33 33 32 31 30 28 29 29 30 28 30 28 26 27 30 37 34 36 34 37 35 30 24 22 24 21 20
Wind_Direction
171 169 163 163 164 161 161 163 162 161 158 153 154 153 152 147 142 142 141 140 140 139 148 157 158 158 156 150 146 143 142 124 129 144 143 142 140 139 139 136 135 131 129
164 168 163 165 167 164 164 165 165 165 162 158 158 158 158 155 148 143 141 143 144 149 159 161 160 165 161 157 154 149 149 148 150 149 149 147 143 142 141 139 138 134 133
167 161 162 165 166 165 164 166 166 167 166 165 164 166 164 161 152 150 151 150 152 157 160 158 164 166 166 166 155 158 169 171 167 160 158 155 149 145 144 143 139 136 136
161 159 156 158 162 165 165 166 167 169 170 171 171 172 170 164 160 161 164 159 153 153 159 159 160 166 165 157 149 144 155 159 154 159 160 159 150 149 147 145 143 141 139
158 154 154 159 166 170 168 166 167 170 174 175 174 175 173 169 169 170 172 165 157 157 155 147 149 151 154 150 145 149 156 153 160 161 161 162 154 152 151 148 146 143 142
156 155 160 156 166 169 167 166 168 174 176 177 176 176 176 174 174 179 178 170 165 162 161 154 149 146 148 146 145 150 158 160 166 169 172 172 164 154 151 148 147 146 143
159 159 157 158 164 165 167 168 171 176 178 179 178 176 178 178 181 184 183 179 176 170 166 158 153 149 150 150 150 155 169 168 172 180 181 166 166 157 155 156 157 159 158
160 157 158 163 165 166 166 174 174 180 181 182 181 181 180 182 186 188 189 186 185 181 175 166 160 157 153 152 153 171 177 176 175 179 180 169 165 158 160 168 175 182 161
162 162 166 169 171 172 173 178 181 181 184 187 189 187 186 187 189 192 194 194 192 192 185 176 172 167 161 161 168 178 187 183 185 178 179 182 181 193 191 187 192 194 187
167 173 177 177 178 179 180 183 187 186 187 191 196 196 196 194 193 197 199 201 198 199 194 187 187 178 178 176 182 179 195 191 183 176 199 194 177 188 201 207 208 210 210
179 187 188 189 187 187 189 188 190 192 191 197 200 201 205 202 200 200 203 205 203 204 206 197 201 196 209 200 195 201 208 213 198 214 203 208 201 192 205 211 219 217 181
192 193 197 198 198 196 197 197 195 199 201 203 208 208 211 209 205 204 203 205 207 211 215 210 212 217 232 218 206 220 209 210 220 220 207 209 211 203 202 215 217 189 170
206 204 205 205 205 206 204 203 203 203 206 208 212 214 215 215 210 207 206 206 209 215 217 215 215 225 239 224 216 226 220 216 213 220 211 213 212 201 199 216 213 195 177
215 219 218 215 212 212 212 212 212 210 209 211 214 216 218 219 217 213 212 211 213 218 221 224 226 233 237 227 214 223 225 219 232 219 217 220 228 210 211 223 226 210 184
217 222 221 222 220 219 216 217 217 215 214 214 214 218 221 223 223 219 218 218 219 222 226 231 234 239 239 233 223 222 230 229 238 235 221 217 216 213 220 221 228 219 190
224 228 227 224 224 226 227 220 217 217 215 209 209 213 215 219 222 223 222 222 220 224 231 236 236 241 242 241 232 231 229 227 236 249 227 219 212 215 220 226 230 224 202
227 231 230 225 222 227 230 227 224 219 214 213 214 211 212 217 220 222 225 225 225 224 230 231 234 239 240 238 236 236 231 235 256 243 223 215 206 217 219 231 228 225 209
235 231 231 229 226 224 228 229 227 224 223 220 218 219 219 223 225 221 222 226 227 228 230 229 230 232 234 234 234 238 236 239 260 228 216 208 205 214 217 227 225 217 196
250 243 230 230 230 231 226 226 226 227 226 224 222 226 228 227 225 220 221 223 225 228 230 233 231 234 235 233 237 238 239 249 247 221 219 204 208 214 222 216 213 203 196
250 251 241 232 229 233 228 222 222 222 226 226 223 228 230 228 230 220 220 221 223 222 223 226 232 236 235 235 242 238 240 251 236 220 224 202 210 214 217 211 206 201 201
252 250 249 237 232 229 222 223 220 220 225 223 221 222 225 226 228 224 220 222 223 220 224 225 232 234 235 238 239 245 252 237 219 217 223 205 209 215 211 210 208 198 199
250 251 252 244 233 229 227 227 223 221 225 228 228 222 224 228 227 229 222 223 223 223 225 229 232 231 234 239 234 224 231 232 222 222 226 203 208 210 207 210 209 206 210
219 245 242 244 235 231 228 223 226 225 230 229 228 226 227 226 229 227 224 224 225 226 227 222 231 230 233 236 233 219 196 203 205 218 216 201 203 200 204 210 210 212 219
97 95 208 216 226 225 223 221 224 219 218 230 233 231 230 228 230 227 227 226 226 227 226 229 233 230 235 234 235 230 226 222 189 182 213 202 201 198 199 207 211 216 224
68 75 82 193 214 221 224 227 227 222 224 226 231 236 236 230 232 233 231 228 227 230 233 232 237 236 234 234 231 236 231 232 207 183 183 200 202 201 204 208 219 223 227
33 22 24 111 197 210 222 231 234 232 225 221 226 232 234 233 233 237 237 233 230 233 233 239 239 236 235 236 236 235 237 205 197 184 177 190 194 201 204 221 223 230 237